Temp_Advection
nan nan nan nan nan nan nan nan nan nan nan nan nan nan nan nan nan nan nan nan nan nan nan nan nan nan nan nan nan nan nan nan nan nan nan nan nan nan nan nan nan nan nan nan nan nan nan nan nan nan nan nan nan nan
nan -0 -0 -0 -0 -0 -0 -0 -0 0 0 -0 -1 -0 -0 -0 -0 -0 -0 -0 0 -0 -0 -0 -0 -0 -0 0 0 -0 0 -0 0 -0 -0 -0 0 -0 -0 0 -0 -0 -0 -0 -0 -1 0 0 -0 0 0 0 0 nan
nan -0 0 0 -0 -0 0 0 0 0 0 -0 -0 -0 -0 -0 -0 -0 -0 -0 -0 -0 -0 -0 -0 0 0 0 0 -0 0 -0 -0 -0 -0 -0 -0 0 0 0 -0 0 0 -0 -0 -0 1 0 0 0 0 0 0 nan
nan 0 -0 0 -0 0 -0 0 1 0 -0 -0 -0 -0 -0 -1 -0 -0 -0 -0 -0 -0 -0 -0 0 0 0 0 0 0 -0 0 -0 -0 -0 -0 0 0 0 -0 -0 0 -0 -0 -0 -1 0 1 0 0 0 0 0 nan
nan 0 -0 0 -0 0 -1 0 1 1 -0 -0 -0 -0 -0 -1 -0 -0 -0 -0 0 -0 -0 -0 -0 0 0 0 0 0 0 0 -0 -0 -0 -0 0 -0 0 -0 -0 0 -0 -0 -0 0 0 -0 -0 0 -0 -0 -0 nan
nan -0 0 0 -0 0 -1 -0 1 1 -0 -0 -0 -0 -0 -0 -0 -0 0 0 -0 -0 -0 -0 -0 0 0 0 0 0 0 -0 -0 -0 -0 0 -0 -0 -0 -0 -0 0 -0 -1 0 0 0 -0 -0 -0 -0 -0 -0 nan
nan -0 -0 0 0 0 -0 -0 1 1 -0 -0 -0 -0 0 -0 -0 -1 -0 0 -0 -0 -0 -0 -0 -0 0 0 0 -0 -0 -0 -0 0 0 -0 0 0 -0 -0 0 0 0 0 0 0 0 0 0 0 0 -0 -0 nan
nan 0 0 1 1 0 0 -0 1 1 -0 -0 0 0 -0 -0 -1 -1 -0 0 -0 -0 0 -0 -0 0 0 -0 -0 -0 -0 -0 -0 -0 -0 0 0 -0 -0 -1 0 0 -0 -0 0 0 0 0 0 0 0 -0 -1 nan
nan -0 0 0 1 0 0 1 0 1 0 0 -0 -0 -0 -0 -0 0 -0 -0 -0 -0 0 -0 -0 0 0 -0 0 0 0 0 0 -0 0 0 -0 -0 -0 0 0 0 0 0 1 1 1 1 0 -0 -0 0 -1 nan
nan -0 -0 0 0 -0 0 0 0 0 -0 0 0 -0 -0 -0 -0 0 0 -0 0 -0 -0 -0 -0 0 0 0 0 -0 -0 0 -0 0 0 -0 -0 -0 1 0 -0 0 0 0 -0 -0 -0 -0 0 0 0 0 0 nan
nan 0 -1 0 0 -0 -0 0 0 0 0 0 0 0 0 0 0 0 0 0 0 -0 0 0 -0 -0 0 -0 0 -0 0 -0 -0 0 -0 -0 0 0 -0 -0 -0 -0 0 0 -0 -0 -0 0 -0 0 0 0 0 nan
nan 0 -0 -0 0 0 -0 -0 -0 0 0 0 0 0 0 -0 -0 0 0 -0 -0 0 0 0 0 0 0 0 0 0 -0 -0 0 -0 -0 -0 0 0 -0 -0 -0 0 0 0 -0 0 0 0 0 -0 -1 0 -0 nan
nan -0 -0 -0 0 0 -0 -0 -0 0 0 0 0 0 -0 0 0 0 0 0 0 -0 -0 -0 0 0 0 0 -0 0 -0 0 -0 -0 -0 0 0 -0 -0 -0 -0 0 0 0 0 0 1 1 1 1 0 -0 -0 nan
nan -0 -0 -0 -0 0 0 -0 0 0 0 0 0 0 0 0 0 -0 -0 -0 -0 -0 -0 -0 -0 0 0 -0 0 0 -0 -0 -0 -0 -0 0 0 -0 -0 -0 -0 0 0 0 0 1 1 1 1 1 1 1 0 nan
nan -0 -0 -0 -0 -0 0 0 0 0 0 0 0 0 0 0 0 0 0 -0 -0 0 -0 -0 -0 -0 0 -0 0 0 -0 -0 -0 -0 0 0 0 0 -0 -0 -0 -0 0 0 0 0 0 0 0 0 1 1 1 nan
nan -0 -0 0 -0 -0 0 0 0 0 0 0 0 0 0 0 0 0 0 -0 -0 -0 -0 -0 -0 -0 0 0 0 -0 -0 -0 0 0 -0 -0 -0 -0 -0 -0 -0 0 0 0 0 0 0 1 1 0 0 1 1 nan
nan -0 -0 -0 -0 -0 0 -0 -0 0 0 0 0 0 0 0 0 0 -0 -0 -0 -0 -0 -0 -0 0 -0 -0 -0 0 0 -0 -1 -1 -0 -0 -0 -0 -0 -0 0 0 0 0 0 0 0 1 1 1 0 0 1 nan
nan -0 -0 -0 -0 -0 0 0 0 0 -0 0 0 0 0 0 -0 -0 0 -0 -0 -0 0 0 0 0 -0 0 0 -0 -1 -2 -1 -1 -0 -0 -0 -0 -0 -0 0 0 0 0 0 0 1 0 0 0 0 0 0 nan
nan -0 -0 -0 -0 -0 0 0 0 -0 0 0 0 0 -0 -0 -0 0 -0 -0 -0 -0 -0 -0 -0 0 0 -0 -0 -0 -0 -1 -1 -2 -1 -0 -0 -0 -0 0 0 0 0 1 1 1 1 1 1 0 0 1 0 nan
nan -0 -0 -0 -0 0 0 0 0 -0 0 0 0 0 -0 -0 -0 -0 -0 -0 -0 -0 -0 0 -0 -0 -0 -0 -0 -0 -0 -0 -1 -2 -1 -0 -0 0 0 0 0 0 0 0 0 1 1 1 1 2 1 1 1 nan
nan -0 -0 -0 0 0 0 -0 -0 -0 0 0 0 -0 -0 -0 0 -0 -0 -0 -0 0 0 -0 -0 -0 -0 -0 0 0 -0 -0 1 -0 -2 -2 -1 -0 0 0 0 0 0 0 0 0 0 0 1 1 1 1 1 nan
nan -0 -0 0 0 0 0 -0 -0 -0 0 0 0 -0 -0 -0 -0 -0 -0 0 0 0 -0 -0 -0 -0 -0 0 0 -0 -0 -1 -1 -1 0 -0 -1 -1 -0 0 0 0 0 0 0 -0 -0 1 1 1 0 0 1 nan
nan -0 0 0 0 0 0 0 0 -0 -0 0 -0 -0 -0 -0 -0 -0 0 0 0 -0 -0 -0 -0 -0 -1 -1 -0 0 -0 -1 -1 -1 -1 -0 -0 -1 -0 0 0 0 0 0 0 1 1 1 0 0 0 0 0 nan
nan 0 0 0 0 0 0 0 0 -0 -0 -0 -0 -0 -0 -0 -0 -0 0 0 -0 -0 -0 -0 -1 -1 -1 -0 -0 -0 -0 -1 -1 -1 -1 -1 -0 -1 -0 0 0 0 0 0 1 1 1 1 0 0 0 0 0 nan
nan 0 0 0 0 -0 -0 -0 -0 0 -0 0 0 -0 0 -0 -0 -0 -0 -0 -0 0 0 -0 -0 -1 -1 -1 -1 -0 0 -0 -1 -2 -1 -0 -1 0 0 -0 0 0 1 1 0 0 1 0 1 0 0 1 0 nan
nan 0 0 -0 -0 0 0 -0 -0 0 0 -0 0 -0 -0 0 -0 -0 -0 -0 -0 0 0 0 -0 -1 -0 -0 -1 -1 -0 0 -1 -2 -1 0 -1 -0 -0 0 0 0 0 -0 -0 0 0 -0 0 0 1 1 1 nan
nan 0 -0 0 -0 -0 -0 -0 0 -0 -0 -0 -0 -0 0 -0 -0 -1 -0 0 0 1 1 0 0 -0 -1 -1 -0 -0 -0 0 -0 -2 -1 -0 -0 -1 -0 -0 -1 -0 0 -0 -0 1 -0 -0 -0 -0 0 -0 0 nan
nan -0 -0 1 0 0 -0 -0 -0 -0 -0 -0 -0 -0 -0 -1 -1 -0 0 0 1 1 0 1 1 0 -0 -0 -0 -1 -0 0 -0 -1 -1 -0 -0 -0 -0 -0 0 -1 -0 -0 1 1 -0 0 0 0 0 0 0 nan
nan 0 -1 -0 0 -0 -0 -0 -0 -0 -0 -0 -0 -0 -0 -1 -0 0 1 1 1 1 0 -0 0 1 0 0 -0 0 -0 0 0 -0 -0 -1 -1 -0 -0 0 -0 -1 -0 1 1 1 2 2 2 1 1 1 1 nan
nan 0 -1 -0 0 -0 0 0 0 0 0 0 -0 -0 -1 -1 -0 0 1 1 1 1 1 0 -0 -0 -0 -0 -1 0 0 0 0 -0 -1 -1 -1 -0 -0 0 -0 -0 1 1 1 1 1 2 1 1 1 1 1 nan
nan 0 -0 -0 0 0 0 0 0 0 0 0 0 -0 -1 -1 -2 -1 1 1 1 1 0 0 0 0 -0 -0 -0 -1 -0 0 0 -0 -0 -0 -0 -0 0 0 -0 -0 0 1 0 -0 -0 0 1 1 1 0 0 nan
nan 0 -0 -0 0 0 0 0 0 0 0 0 0 0 -0 -0 -1 -1 0 0 0 0 0 0 -0 0 -0 -0 -0 -0 -0 -0 -0 -0 0 0 0 0 0 0 -0 0 0 0 1 1 1 1 0 0 0 0 0 nan
nan nan nan nan nan nan nan nan nan nan nan nan nan nan nan nan nan nan nan nan nan nan nan nan nan nan nan nan nan nan nan nan nan nan nan nan nan nan nan nan nan nan nan nan nan nan nan nan nan nan nan nan nan nan
Wind_Speed
18 18 18 16 18 19 20 20 21 20 19 18 18 16 13 15 12 15 16 6 8 5 3 5 5 6 8 9 4 5 4 2 3 4 4 4 5 6 4 6 9 10 8 5 5 4 8 2 1 3 3 4 6 11
16 17 19 15 19 19 20 21 19 21 19 18 17 13 11 14 11 13 12 11 9 4 2 2 4 3 8 5 10 13 3 4 6 3 4 3 3 3 5 4 5 7 6 3 8 6 4 3 7 9 8 8 8 8
17 15 19 17 18 18 19 21 20 20 19 15 16 14 10 12 9 10 13 10 5 3 4 3 5 8 11 10 11 7 6 7 6 10 2 2 5 4 4 4 6 6 6 4 2 5 13 11 6 9 9 9 9 7
16 14 19 18 18 18 20 21 22 22 20 18 16 17 15 12 9 10 10 6 5 3 2 1 3 5 7 10 14 17 10 11 8 10 3 2 3 3 1 1 3 1 8 7 8 14 15 9 4 4 5 2 3 0
16 15 18 18 18 19 21 22 23 24 22 18 15 14 15 11 9 10 7 6 7 3 3 3 5 4 4 7 6 9 14 14 10 3 3 3 1 2 1 1 4 7 7 6 4 2 4 2 2 3 4 3 3 6
16 16 19 19 19 20 22 24 25 25 22 18 15 13 9 7 7 4 3 6 7 4 4 2 3 3 5 5 6 6 7 7 6 3 3 4 2 2 2 3 6 15 12 12 5 3 4 3 2 3 4 6 7 8
16 15 18 19 21 22 24 27 26 26 22 16 13 11 10 7 7 7 4 8 11 6 3 2 2 3 5 3 3 6 6 5 5 4 3 2 2 2 2 4 3 3 6 14 13 7 6 6 2 5 6 10 11 14
16 14 15 17 20 23 25 29 27 26 20 15 10 8 7 6 8 8 3 3 14 5 3 1 2 2 2 2 2 1 3 5 5 1 2 2 1 2 4 9 12 12 8 10 11 14 12 5 8 11 12 15 16 17
15 14 14 15 19 22 24 28 20 12 13 6 5 6 4 5 5 4 3 4 14 5 2 2 1 1 1 2 1 1 1 2 2 2 2 2 3 5 7 7 6 6 6 5 9 10 10 10 13 15 16 16 17 20
14 14 14 15 19 21 24 22 8 11 7 11 12 2 3 6 8 8 5 5 7 3 4 2 2 2 1 2 1 2 1 0 1 0 2 3 4 14 12 8 6 6 6 7 11 9 13 15 18 19 18 19 22 24
13 14 13 14 18 19 22 15 6 7 3 2 2 1 5 6 4 2 2 2 3 2 3 2 4 1 2 1 1 1 1 1 2 1 2 2 3 2 5 8 12 7 5 8 8 6 10 14 23 24 23 24 23 27
12 13 13 14 16 17 22 18 6 3 4 5 4 6 4 2 2 1 1 0 2 2 2 1 2 3 2 1 1 1 1 1 2 2 2 3 2 3 5 4 5 7 8 11 8 6 12 15 22 24 25 26 29 30
11 11 13 14 16 17 21 16 5 2 1 1 2 1 2 1 2 3 5 2 2 1 1 1 1 1 2 1 2 1 1 1 2 2 3 3 3 7 5 4 2 5 9 8 7 8 13 19 23 25 28 29 30 30
11 11 12 13 13 18 20 11 2 5 2 2 1 1 1 2 1 1 1 1 1 2 4 2 1 1 1 1 0 1 1 1 1 2 4 2 5 6 4 4 2 4 7 7 8 12 18 24 26 27 29 32 33 33
10 11 11 10 13 16 17 6 5 6 1 2 2 3 2 1 1 1 1 2 2 5 4 1 1 1 0 1 1 1 0 3 4 3 2 4 8 4 3 2 1 4 7 9 11 16 20 23 26 29 30 32 33 34
10 10 5 9 14 16 10 2 3 3 1 2 2 3 1 1 1 2 3 3 3 3 4 3 1 1 2 1 2 5 3 4 2 2 5 9 3 3 3 2 1 4 7 9 12 16 21 24 28 31 31 31 32 31
9 6 6 11 13 14 2 5 4 4 3 2 1 2 3 2 2 1 1 1 4 1 1 1 3 2 2 1 3 3 2 4 8 11 12 6 4 4 3 3 3 5 7 9 13 18 22 24 28 31 33 32 31 30
10 8 8 9 11 9 1 5 3 3 2 2 2 2 1 3 3 3 2 3 2 1 1 1 2 2 3 3 1 3 5 17 13 13 11 7 6 6 5 5 6 7 9 11 15 19 22 27 31 33 33 33 31 30
8 7 7 7 9 5 1 2 2 3 2 2 1 1 1 3 5 6 7 6 6 5 6 2 3 3 2 1 1 5 10 11 15 20 16 10 9 7 6 6 7 9 10 13 18 22 26 30 32 35 35 32 32 32
9 9 7 6 6 1 1 1 2 2 2 3 2 1 3 3 4 4 4 4 2 3 3 3 1 2 3 5 11 14 14 16 17 18 15 10 10 9 8 8 9 11 14 17 21 24 29 31 33 35 29 29 30 33
9 8 5 5 3 3 2 3 2 3 1 1 1 3 2 3 0 1 2 3 3 3 1 1 1 5 12 14 14 16 18 18 18 16 19 20 13 11 10 10 11 13 17 21 25 28 29 32 33 29 31 30 32 30
7 6 3 4 4 3 2 2 3 3 2 1 1 4 1 1 1 0 7 2 2 2 2 6 11 15 18 19 20 18 18 18 18 20 18 18 18 15 15 16 16 18 21 24 28 31 33 34 31 31 27 29 29 29
6 5 4 4 3 3 2 3 2 2 2 1 2 1 0 1 1 5 2 3 3 3 4 8 12 14 18 18 18 17 16 18 18 18 18 19 18 18 17 19 20 22 25 28 30 32 34 32 29 29 31 31 30 29
6 4 3 4 3 3 4 2 2 2 2 2 1 1 2 2 5 2 3 3 4 3 4 9 15 20 19 18 18 18 17 17 19 19 17 18 20 20 18 20 24 25 27 29 31 32 34 32 33 34 34 33 31 28
4 3 3 1 3 2 2 2 2 2 2 1 1 2 1 3 1 2 2 3 7 5 6 14 18 19 21 24 22 19 16 16 19 22 18 16 18 20 21 23 26 26 27 30 35 37 36 36 35 34 33 31 30 28
3 4 3 5 2 3 4 4 4 4 3 2 4 1 1 1 0 4 3 4 8 8 14 21 25 26 25 19 23 23 20 18 18 23 23 18 18 21 25 29 30 30 29 33 38 39 38 38 37 35 33 30 27 25
4 4 4 4 4 6 4 4 4 2 3 4 3 2 2 1 4 3 4 6 8 15 21 21 22 23 25 25 21 20 20 19 19 22 21 20 18 20 24 29 33 33 34 35 37 38 38 38 36 35 33 31 24 21
4 8 6 9 4 4 4 2 4 6 4 6 6 3 6 6 4 3 4 12 19 21 21 21 20 21 22 22 22 21 20 18 17 17 17 18 18 18 20 21 23 26 31 34 37 38 39 37 36 35 32 28 26 24
5 8 10 3 3 4 7 5 5 8 8 11 5 4 4 6 5 11 19 20 21 21 22 21 16 17 19 19 18 17 17 16 17 15 13 15 14 16 17 16 20 25 32 36 36 36 37 35 33 32 28 27 28 25
7 14 5 3 5 5 5 7 5 8 10 9 4 4 6 12 16 17 19 20 18 17 18 17 17 17 17 17 17 14 12 13 13 16 17 13 15 15 17 19 24 30 36 38 39 37 36 37 34 30 29 30 26 23
12 9 4 3 3 3 5 8 7 7 6 7 11 10 10 10 17 18 14 12 12 14 13 13 13 15 17 17 18 19 17 10 11 12 14 14 14 15 20 24 27 34 37 38 38 40 40 36 33 32 30 27 24 21
6 5 5 2 1 3 6 6 5 5 4 4 5 6 4 5 6 7 8 7 9 9 10 13 15 14 13 15 15 14 14 12 10 8 9 12 12 17 22 25 31 35 38 41 40 38 36 34 33 31 28 25 22 20
4 4 4 5 3 1 4 4 2 2 3 3 3 3 4 4 7 6 7 6 4 5 8 9 9 11 13 12 11 9 8 8 6 2 4 10 14 20 25 31 37 40 40 39 37 36 33 32 31 28 25 22 19 17
Wind_Direction
318 318 323 326 327 329 335 332 328 327 322 317 320 329 349 343 346 338 329 348 6 316 175 192 181 154 169 184 170 140 138 184 163 181 213 199 224 200 193 174 171 178 191 196 200 239 257 149 138 261 346 295 284 307
314 313 316 322 320 329 333 331 335 330 329 327 325 323 329 334 342 336 327 342 350 214 269 244 223 232 207 218 184 167 191 140 181 191 216 246 196 189 194 192 177 204 209 197 204 219 267 235 268 297 289 282 298 292
309 310 313 315 317 324 329 328 337 326 320 316 319 314 303 311 329 332 320 333 7 353 293 266 231 232 238 229 226 159 196 201 211 208 220 260 242 185 181 213 187 222 188 249 242 238 253 272 291 265 282 287 295 301
307 310 312 313 313 321 323 327 333 324 314 311 302 303 289 298 309 314 310 296 304 307 277 284 256 252 242 234 233 243 200 192 259 206 233 257 267 205 215 61 229 218 159 217 253 279 283 283 311 240 233 275 312 75
305 308 310 310 316 321 320 327 330 321 314 304 297 292 293 287 295 296 281 245 243 236 322 307 304 273 258 258 234 220 231 219 233 196 214 224 235 196 157 209 233 191 196 201 234 298 274 9 17 142 148 127 113 134
302 307 310 312 316 320 319 329 329 320 311 302 293 283 286 280 288 326 134 209 229 205 304 313 305 280 285 245 245 224 232 223 212 232 224 211 225 225 238 249 246 210 219 229 260 285 253 320 92 157 125 114 128 145
300 309 308 314 315 322 324 331 331 318 311 303 286 269 265 259 240 220 185 151 195 206 269 302 292 262 290 254 225 249 199 197 218 197 233 294 200 215 254 242 242 222 239 227 237 258 277 258 237 181 158 135 140 130
298 309 312 318 320 325 332 335 335 325 331 311 272 243 216 240 239 230 200 278 190 186 261 284 275 288 234 255 224 242 199 192 197 240 218 222 165 208 255 249 271 285 263 235 231 233 242 251 190 165 158 143 140 132
301 308 315 325 326 332 337 340 345 348 359 5 140 146 154 196 193 166 206 167 174 226 243 204 244 288 243 262 275 221 227 186 201 232 202 190 177 221 235 251 273 271 237 256 220 217 210 192 175 163 160 154 153 143
303 307 316 326 328 336 341 351 358 23 79 115 125 127 198 151 170 138 129 145 185 253 230 244 254 256 245 352 338 314 10 84 267 192 299 221 250 246 257 248 267 283 237 214 170 173 181 177 177 171 171 161 157 149
299 307 314 324 330 337 342 352 304 341 2 304 325 341 127 139 126 78 126 164 195 243 216 235 236 287 238 267 323 35 338 350 250 94 286 262 257 255 302 276 238 256 237 198 198 217 218 207 182 175 173 171 164 153
298 305 312 320 329 334 339 343 265 342 20 18 19 82 108 118 78 68 221 78 222 238 188 240 188 211 195 197 163 42 315 318 255 341 247 251 261 325 317 305 226 219 204 198 213 225 195 192 188 180 174 170 166 161
293 300 308 317 325 332 337 338 289 213 79 357 40 91 4 43 137 203 202 203 241 300 347 331 214 195 149 149 80 101 235 252 314 256 253 252 304 320 324 322 248 206 192 202 209 188 182 177 178 179 172 170 166 163
286 292 303 319 319 329 336 331 216 181 162 213 95 171 196 188 261 51 29 341 355 312 310 265 266 185 124 74 39 226 62 303 273 262 245 288 322 329 330 328 264 195 191 194 189 178 172 171 171 174 173 169 168 164
288 293 305 311 320 328 335 314 183 185 182 194 140 189 164 180 118 99 89 326 333 326 286 251 264 238 64 116 19 98 223 255 225 242 258 317 324 323 331 339 218 195 190 186 180 174 172 171 170 167 169 168 169 165
283 292 285 306 325 331 336 194 148 152 105 192 155 152 169 203 129 106 39 21 351 305 278 250 278 256 223 150 181 214 178 226 253 241 301 320 303 306 324 320 208 191 190 188 182 179 175 173 172 168 165 167 168 166
277 260 288 312 323 334 333 191 170 173 201 171 157 135 138 142 217 221 329 268 327 291 250 302 217 216 89 193 253 195 231 346 338 327 325 312 296 298 286 253 212 195 189 185 182 180 179 174 170 166 163 164 165 163
256 262 288 306 321 340 187 197 190 173 121 151 180 169 207 217 229 246 233 261 325 278 230 217 155 201 219 215 248 18 346 336 337 330 322 314 302 295 274 239 214 199 194 188 184 179 176 172 170 167 164 162 162 163
262 266 285 304 326 339 220 200 173 141 157 160 212 226 267 267 263 261 275 282 263 265 294 234 238 217 209 70 327 324 332 339 323 322 320 309 296 284 265 236 213 202 193 186 180 178 175 175 172 167 164 163 171 168
257 265 284 289 315 269 211 148 146 134 173 166 193 218 287 290 306 323 326 323 253 221 225 224 347 48 20 332 324 317 320 326 322 319 319 324 299 277 250 237 222 204 193 184 182 182 177 173 172 169 170 172 172 169
249 256 244 278 259 196 174 159 112 137 150 194 256 327 293 321 54 286 275 317 239 232 281 44 349 299 310 313 319 315 311 313 310 299 295 294 310 285 256 236 225 212 200 190 184 179 181 178 169 173 173 178 178 171
230 232 258 237 211 162 130 121 127 148 132 129 235 337 24 360 322 265 308 250 249 238 275 316 320 322 319 320 318 312 306 305 299 296 293 276 276 279 259 238 224 215 207 199 192 187 180 178 181 177 178 174 171 169
232 229 204 196 182 181 168 158 164 132 130 200 340 33 17 295 252 313 257 240 245 212 301 314 320 321 316 314 310 309 304 296 293 289 282 271 265 263 258 241 229 217 208 201 198 190 184 180 181 177 174 173 170 168
208 217 191 179 172 168 149 115 121 117 100 58 72 306 312 298 331 31 255 245 206 236 329 337 334 329 326 319 316 308 307 300 291 284 279 271 263 259 249 234 229 223 217 207 195 188 182 180 177 176 175 175 174 172
202 217 188 157 161 114 99 66 11 86 132 159 109 288 269 336 339 259 244 251 212 234 315 326 328 323 316 314 313 312 309 304 295 287 276 272 263 255 243 228 224 223 216 203 191 188 180 179 178 179 178 176 174 173
202 191 156 188 157 175 174 138 174 175 135 152 217 271 4 122 278 242 235 223 229 268 312 323 320 316 312 313 308 310 310 303 292 283 279 273 263 251 244 230 216 212 210 204 200 185 180 181 181 178 175 174 175 173
207 221 173 161 157 143 98 88 122 131 147 179 189 147 104 187 247 249 240 259 271 301 313 318 314 308 307 309 307 306 304 298 290 285 280 266 254 252 246 242 235 221 206 198 195 184 186 181 176 174 172 171 170 180
203 170 174 170 160 172 133 139 163 186 188 177 140 178 187 201 236 214 279 303 306 310 314 318 312 306 304 305 305 305 303 300 291 286 274 261 255 251 241 241 241 233 209 196 189 187 186 179 176 175 173 171 172 174
175 166 145 125 146 202 204 181 200 195 176 175 169 201 233 225 260 299 304 305 307 310 314 316 316 304 303 300 299 299 299 297 287 275 262 260 260 244 231 226 221 211 198 185 182 185 180 177 178 173 173 173 174 168
175 163 127 161 170 211 199 188 170 172 186 193 212 253 260 274 289 295 298 300 302 308 312 315 318 318 319 319 315 308 301 296 282 260 245 260 265 251 226 212 208 196 183 177 174 177 177 172 172 169 168 171 169 168
152 161 112 164 205 186 173 177 178 190 202 224 237 255 268 287 290 295 293 291 304 310 312 315 317 315 312 314 311 309 307 297 291 271 244 255 269 243 212 201 197 186 177 174 170 167 168 170 168 165 167 166 164 166
148 167 145 135 222 147 153 175 186 204 224 230 236 238 264 270 269 267 268 290 312 311 317 327 328 330 332 328 318 308 303 305 305 277 244 241 231 205 193 186 179 173 165 163 166 167 168 165 160 162 161 161 161 162
118 136 104 107 103 165 173 181 175 290 242 248 246 237 234 244 252 254 263 271 295 315 334 341 350 7 3 2 18 32 46 49 39 11 226 206 189 183 178 172 168 166 166 166 162 158 156 154 156 156 158 158 157 157
Height
1460 1459 1455 1450 1446 1442 1438 1437 1434 1428 1425 1421 1418 1416 1414 1412 1410 1407 1405 1403 1402 1399 1398 1399 1400 1401 1404 1406 1406 1412 1415 1415 1415 1418 1416 1409 1403 1402 1402 1400 1409 1415 1419 1417 1420 1418 1404 1383 1385 1383 1381 1379 1378 1376
1454 1454 1452 1446 1444 1439 1436 1433 1429 1426 1423 1419 1416 1413 1411 1410 1409 1406 1403 1402 1400 1400 1399 1399 1399 1400 1401 1402 1404 1407 1408 1410 1412 1413 1414 1406 1401 1403 1395 1396 1405 1406 1399 1398 1400 1392 1381 1383 1382 1380 1379 1377 1376 1375
1449 1449 1446 1442 1440 1435 1431 1430 1425 1423 1421 1417 1415 1412 1410 1408 1407 1406 1402 1400 1399 1399 1399 1398 1398 1399 1399 1400 1401 1403 1405 1406 1407 1407 1405 1401 1396 1396 1392 1393 1395 1397 1398 1397 1397 1377 1380 1379 1379 1378 1376 1375 1373 1371
1445 1445 1441 1438 1436 1431 1428 1424 1420 1419 1417 1414 1411 1409 1406 1404 1404 1403 1401 1401 1402 1402 1400 1397 1396 1396 1396 1397 1397 1398 1399 1401 1402 1403 1402 1398 1395 1396 1392 1392 1392 1390 1395 1391 1388 1380 1376 1374 1376 1374 1374 1374 1372 1371
1441 1440 1437 1435 1431 1427 1424 1419 1414 1414 1411 1407 1406 1404 1403 1402 1401 1400 1399 1400 1400 1404 1399 1396 1395 1395 1394 1394 1394 1394 1396 1398 1399 1398 1398 1397 1395 1395 1394 1395 1389 1388 1383 1383 1376 1375 1376 1376 1375 1374 1374 1374 1373 1372
1437 1435 1432 1430 1427 1423 1420 1414 1409 1407 1404 1401 1399 1398 1398 1398 1399 1398 1399 1399 1399 1401 1400 1397 1395 1394 1394 1392 1392 1393 1393 1396 1396 1394 1393 1392 1391 1392 1389 1385 1375 1376 1376 1376 1375 1376 1376 1375 1375 1375 1374 1374 1375 1375
1434 1429 1428 1426 1423 1419 1415 1410 1403 1401 1396 1394 1393 1394 1394 1395 1396 1397 1397 1397 1398 1400 1400 1397 1394 1393 1392 1391 1391 1391 1391 1392 1394 1393 1392 1391 1391 1391 1389 1382 1371 1372 1372 1374 1375 1376 1375 1375 1375 1376 1375 1376 1377 1378
1428 1424 1423 1420 1418 1415 1411 1405 1399 1394 1390 1387 1387 1389 1391 1393 1394 1394 1395 1396 1397 1400 1400 1398 1394 1393 1391 1389 1389 1390 1389 1391 1391 1391 1391 1390 1391 1390 1383 1370 1369 1369 1370 1371 1371 1372 1374 1374 1375 1376 1377 1377 1380 1381
1424 1421 1418 1415 1414 1411 1407 1401 1395 1390 1387 1384 1384 1387 1389 1391 1392 1393 1395 1395 1397 1401 1398 1397 1395 1390 1391 1390 1389 1389 1388 1389 1390 1388 1388 1389 1384 1381 1368 1369 1369 1369 1368 1367 1368 1370 1372 1374 1374 1375 1377 1379 1381 1385
1419 1417 1415 1412 1411 1408 1404 1399 1394 1391 1389 1388 1389 1389 1390 1390 1392 1394 1395 1396 1399 1397 1396 1394 1392 1391 1392 1390 1389 1390 1389 1389 1388 1388 1387 1385 1374 1367 1365 1366 1366 1367 1366 1367 1368 1370 1370 1371 1373 1374 1378 1381 1383 1386
1416 1414 1412 1410 1408 1406 1403 1399 1395 1392 1391 1390 1389 1389 1390 1390 1392 1392 1393 1395 1395 1395 1393 1392 1392 1390 1391 1391 1390 1392 1391 1391 1387 1387 1385 1377 1367 1364 1363 1362 1364 1365 1364 1365 1366 1366 1367 1369 1371 1373 1376 1381 1385 1388
1412 1410 1409 1407 1405 1403 1400 1396 1394 1393 1392 1391 1390 1391 1391 1392 1393 1394 1394 1396 1394 1391 1391 1390 1390 1390 1390 1390 1390 1392 1391 1391 1386 1392 1388 1376 1364 1364 1363 1362 1361 1363 1363 1364 1364 1364 1365 1367 1370 1374 1378 1382 1387 1390
1408 1407 1406 1404 1402 1400 1397 1394 1392 1392 1392 1392 1391 1392 1391 1394 1394 1393 1390 1391 1390 1390 1390 1389 1390 1390 1390 1390 1391 1391 1391 1388 1391 1388 1378 1367 1364 1364 1362 1362 1361 1361 1362 1363 1363 1364 1365 1366 1371 1374 1377 1383 1388 1392
1404 1403 1402 1401 1399 1397 1394 1391 1390 1391 1392 1392 1391 1391 1392 1391 1390 1392 1392 1392 1392 1391 1390 1389 1389 1389 1389 1390 1391 1389 1393 1393 1389 1387 1373 1364 1364 1363 1362 1361 1361 1361 1362 1363 1364 1365 1366 1368 1371 1375 1380 1384 1388 1392
1401 1401 1399 1397 1396 1394 1391 1389 1388 1390 1390 1391 1391 1389 1390 1392 1392 1393 1393 1393 1392 1392 1391 1390 1389 1390 1390 1391 1392 1393 1393 1387 1382 1370 1366 1366 1363 1363 1362 1362 1361 1362 1363 1364 1365 1367 1369 1371 1374 1377 1383 1387 1391 1395
1398 1397 1395 1395 1393 1391 1388 1388 1388 1390 1390 1391 1390 1391 1391 1391 1391 1392 1391 1391 1392 1391 1391 1391 1390 1389 1387 1389 1390 1386 1384 1375 1368 1369 1367 1365 1364 1363 1363 1362 1362 1363 1364 1365 1366 1368 1370 1373 1375 1379 1384 1390 1394 1399
1396 1394 1392 1392 1391 1388 1386 1388 1389 1389 1389 1389 1390 1389 1389 1390 1391 1391 1390 1391 1391 1391 1390 1390 1388 1382 1392 1391 1388 1384 1378 1375 1374 1371 1368 1367 1366 1365 1364 1363 1363 1364 1364 1366 1367 1370 1372 1375 1379 1382 1386 1392 1397 1402
1392 1391 1390 1389 1388 1386 1385 1387 1387 1387 1387 1388 1389 1389 1389 1390 1389 1389 1390 1391 1391 1390 1389 1389 1390 1389 1384 1382 1377 1383 1381 1378 1375 1372 1369 1368 1367 1366 1365 1364 1364 1364 1365 1366 1368 1370 1374 1377 1381 1384 1389 1394 1399 1404
1388 1388 1388 1387 1386 1385 1385 1386 1386 1386 1387 1387 1388 1388 1388 1388 1388 1389 1389 1388 1389 1389 1389 1388 1386 1382 1380 1383 1383 1383 1382 1380 1376 1372 1369 1368 1367 1366 1366 1365 1365 1365 1366 1367 1369 1372 1375 1379 1382 1386 1391 1395 1399 1403
1385 1385 1385 1385 1384 1383 1384 1385 1385 1385 1386 1386 1386 1387 1387 1387 1388 1387 1387 1387 1387 1387 1386 1383 1381 1383 1384 1385 1384 1382 1380 1378 1375 1370 1368 1367 1366 1366 1366 1366 1366 1366 1367 1368 1370 1373 1376 1380 1384 1388 1392 1396 1401 1404
1383 1383 1383 1382 1381 1382 1383 1382 1383 1384 1386 1387 1387 1385 1385 1385 1386 1387 1387 1386 1386 1383 1381 1383 1383 1383 1383 1382 1380 1378 1377 1376 1374 1372 1368 1365 1365 1364 1364 1365 1366 1367 1367 1368 1370 1373 1377 1380 1384 1388 1393 1396 1401 1405
1380 1381 1380 1379 1380 1380 1381 1382 1383 1384 1386 1386 1386 1386 1386 1386 1385 1385 1385 1384 1383 1382 1382 1382 1381 1380 1378 1377 1375 1374 1372 1370 1369 1367 1365 1363 1362 1362 1362 1363 1363 1365 1366 1368 1369 1371 1375 1379 1383 1388 1393 1398 1404 1407
1378 1378 1377 1377 1379 1379 1383 1382 1383 1383 1385 1386 1386 1386 1386 1386 1385 1385 1384 1382 1380 1380 1380 1380 1378 1377 1374 1372 1370 1369 1367 1365 1363 1361 1360 1359 1358 1358 1358 1359 1360 1361 1363 1365 1368 1371 1374 1379 1384 1389 1393 1398 1402 1407
1376 1375 1374 1374 1376 1379 1380 1380 1382 1383 1384 1386 1387 1389 1387 1386 1384 1383 1381 1379 1377 1378 1378 1377 1375 1372 1370 1368 1365 1363 1361 1359 1357 1355 1354 1353 1352 1352 1353 1354 1356 1357 1360 1363 1366 1370 1374 1378 1382 1387 1392 1396 1401 1406
1374 1373 1374 1374 1374 1377 1379 1381 1383 1383 1387 1390 1389 1388 1387 1387 1387 1386 1381 1376 1374 1375 1375 1374 1372 1369 1366 1362 1359 1358 1357 1354 1351 1348 1348 1348 1347 1347 1348 1348 1350 1352 1355 1359 1363 1366 1370 1376 1381 1386 1391 1396 1400 1404
1369 1369 1370 1368 1373 1374 1376 1380 1381 1383 1385 1388 1388 1387 1387 1388 1388 1381 1376 1371 1372 1372 1371 1369 1365 1361 1359 1358 1353 1351 1350 1348 1345 1342 1342 1342 1342 1341 1342 1343 1343 1345 1349 1354 1358 1361 1368 1374 1379 1385 1391 1396 1401 1404
1365 1365 1365 1366 1368 1369 1373 1375 1377 1379 1384 1383 1383 1386 1388 1390 1386 1373 1368 1368 1368 1368 1366 1363 1359 1356 1352 1349 1348 1346 1343 1341 1339 1336 1335 1335 1334 1334 1335 1336 1338 1340 1342 1347 1354 1360 1366 1372 1378 1384 1389 1395 1400 1405
1357 1358 1361 1365 1366 1367 1369 1372 1374 1375 1375 1375 1379 1384 1383 1378 1371 1366 1366 1365 1364 1362 1360 1357 1354 1350 1347 1344 1341 1338 1336 1335 1332 1330 1328 1327 1327 1327 1328 1330 1333 1337 1340 1345 1352 1359 1366 1371 1377 1382 1388 1392 1397 1403
1354 1355 1359 1364 1365 1365 1364 1364 1364 1364 1366 1368 1371 1372 1369 1365 1363 1363 1362 1361 1359 1356 1354 1351 1349 1346 1343 1340 1337 1334 1332 1330 1328 1325 1324 1323 1324 1323 1324 1325 1329 1331 1335 1342 1350 1360 1366 1371 1377 1383 1387 1392 1398 1402
1350 1353 1356 1360 1361 1360 1358 1359 1360 1361 1363 1365 1365 1365 1363 1361 1360 1360 1358 1356 1354 1352 1349 1347 1344 1341 1338 1334 1331 1329 1328 1325 1323 1321 1320 1320 1320 1321 1321 1323 1325 1328 1333 1339 1347 1355 1363 1370 1376 1381 1387 1393 1397 1401
1347 1351 1354 1356 1357 1357 1357 1358 1359 1361 1362 1362 1363 1363 1361 1359 1356 1354 1352 1351 1350 1348 1346 1344 1342 1339 1335 1331 1328 1324 1322 1320 1318 1317 1317 1318 1318 1318 1320 1322 1325 1329 1334 1340 1347 1355 1361 1367 1373 1380 1387 1392 1397 1401
1348 1350 1352 1356 1357 1357 1358 1359 1360 1360 1360 1360 1359 1358 1358 1357 1355 1351 1348 1347 1346 1345 1344 1341 1339 1336 1332 1328 1325 1322 1319 1316 1314 1313 1313 1313 1315 1316 1319 1323 1327 1332 1338 1344 1350 1356 1363 1368 1375 1383 1389 1394 1398 1402
1348 1350 1351 1353 1356 1357 1359 1361 1360 1359 1359 1357 1355 1355 1356 1356 1352 1347 1344 1344 1345 1343 1342 1340 1338 1335 1332 1329 1325 1321 1318 1316 1314 1314 1314 1315 1316 1318 1321 1325 1331 1337 1342 1348 1354 1360 1366 1373 1380 1385 1391 1395 1398 1402